Regional Weather Roundup
Issued by NWS Kansas City/Pleasant Hill, MO

Home | Current Version | Previous Version | Text Only | Print | Product List | Glossary On
Versions: 1 2 3 4 5 6 7 8 9 10 11 12 13 14 15 16 17 18 19 20 21 22 23 24 25 26 27 28
000
ASUS43 KEAX 191610
RWREAX

WEATHER ROUNDUP FOR EASTERN KANSAS AND NORTHWEST MISSOURI
NATIONAL WEATHER SERVICE KANSAS CITY/PLEASANT HILL MO
1100 AM CDT TUE SEP 19 2017

KSZ040-057-103>105-MOZ028-029-037-043-191700-
...KANSAS CITY METROPOLITAN AREA...

CITY           SKY/WX    TMP DP  RH WIND       PRES   REMARKS
K.C. INTL      MOSUNNY   77  69  76 S15       29.88F
K.C. DOWNTOWN  SUNNY     80  69  69 S8        29.87F
LEES SUMMIT    SUNNY     77  69  76 S14G22    29.90F
OLATHE - IXD   SUNNY     77  68  73 SE12      29.89F
OLATHE - OJC   SUNNY     76  70  82 SE10      29.89F
LAWRENCE       SUNNY     79  69  71 SE14      29.86F

$$

MOZ001>008-011>017-020>025-030>033-038>040-044>046-053-054-191700-
...NORTHERN AND CENTRAL MISSOURI...

CITY           SKY/WX    TMP DP  RH WIND       PRES   REMARKS
ST. JOSEPH     SUNNY     79  69  71 S9        29.85F
MOSBY          SUNNY     77  68  73 S8        29.90S
WARRENSBURG    MOSUNNY   77  68  73 SE10      29.92S
WHITEMAN AFB   MOSUNNY   73  72  94 S9        29.92S
CLINTON        PTSUNNY   73  72  94 S7        29.94S
SEDALIA        CLOUDY    75  72  90 MISG      29.95F
WARSAW         NOT AVBL
CHILLICOTHE      N/A     71  71 100 S5        29.93F
KIRKSVILLE     CLOUDY    68  67  96 SE6       29.96S

$$

MOZ041-047>049-056>058-063>065-088>090-097-191700-
...EASTERN AND SOUTHERN MISSOURI...

CITY           SKY/WX    TMP DP  RH WIND       PRES   REMARKS
ST. LOUIS INTL MOSUNNY   78  70  76 VRB3      29.97F
SPIRIT OF STL  PTSUNNY   75  71  87 CALM      29.96F
COLUMBIA       MOSUNNY   75  72  90 VRB5      29.96S
JEFFERSON CITY MOSUNNY   74  69  85 CALM      29.95S
ROLLA          SUNNY     79  71  76 VRB6      29.99S
OSAGE BEACH    PTSUNNY   75  72  90 S5        29.97S
SPRINGFIELD    MOSUNNY   81  69  67 SW9       29.96S
BRANSON        PTSUNNY   82  66  57 SE6       30.00R
JOPLIN         SUNNY     82  71  69 S14       29.92F
WEST PLAINS    SUNNY     81  68  64 S3        30.00F

$$

IAZ060-094-KSZ022-034>040-054-083-096-NEZ052-066-093-191700-
...KANSAS...SOUTHEAST NEBRASKA AND IOWA...

CITY           SKY/WX    TMP DP  RH WIND       PRES   REMARKS
TOPEKA         PTSUNNY   80  70  71 S8        29.83F
MANHATTAN      SUNNY     85  67  54 S15G24    29.77F
EMPORIA        SUNNY     81  68  64 S22G31    29.82F
CHANUTE        SUNNY     81  69  67 S12       29.89S
WICHITA        MOSUNNY   85  69  58 S23G29    29.80F
OMAHA          MOSUNNY   76  67  73 SE15      29.80F
LINCOLN        SUNNY     78  67  68 SE14      29.77F
FALLS CITY     SUNNY     79  67  66 SE13      29.82F
LAMONI         CLOUDY    69  68  96 SE10      29.91S
DES MOINES     CLOUDY    69  66  90 SE12      29.90S

$$





USA.gov is the U.S. government's official web portal to all federal, state and local government web resources and services.